Regional Weather Roundup
Issued by NWS

Home | Current Version | Previous Version | Graphics & Text | Print | Product List | Glossary On
Versions: 1 2 3 4 5 6 7 8 9 10 11 12 13 14 15 16 17 18 19 20 21 22 23 24 25 26 27 28 29 30 31 32 33 34 35 36 37 38 39 40 41 42 43 44 45 46 47 48 49 50
000
ASUS43 KOAX 172002
RWRNE

WEATHER ROUNDUP FOR NEBRASKA
NATIONAL WEATHER SERVICE OMAHA NE
300 PM CDT THU APR 17 2014

NOTES: SATELLITE DATA IS BEING USED TO AUGMENT CLOUD COVER ABOVE
       12000 FEET.
       "FAIR" INDICATES FEW OR NO CLOUDS BELOW 12,000 FEET WITH NO
       SIGNIFICANT WEATHER AND/OR OBSTRUCTIONS TO VISIBILITY.

  * THESE STATIONS DO NOT REPORT WEATHER SUCH AS RAIN...SNOW OR FOG.

NEZ001>004-019>022-054>056-172100-
NEBRASKA PANHANDLE

CITY           SKY/WX    TMP DP  RH WIND       PRES   REMARKS
SCOTTSBLUFF    SUNNY     56  36  47 SE14G22   30.07F
ALLIANCE       CLOUDY    42  33  70 S17       30.11F
CHADRON        PTSUNNY   49  37  63 S8G17     30.08F
KIMBALL        SUNNY     54  33  45 S7G16     30.05F
SIDNEY         MOSUNNY   50  36  58 S15G24    30.11F
$$

NEZ057>060-069>072-079>082-172100-
SOUTHWEST NEBRASKA

CITY           SKY/WX    TMP DP  RH WIND       PRES   REMARKS
NORTH PLATTE   SUNNY     50  27  40 S9G20     30.20F
IMPERIAL       PTSUNNY   49  33  54 S20G26    30.18F
LEXINGTON      SUNNY     47  29  51 SE5       30.24F
MCCOOK         SUNNY     50  31  48 S10       30.23F
OGALLALA       PTSUNNY   46  32  58 S14G21    30.17F
$$

NEZ005>010-023>029-035>040-094-172100-
NORTH CENTRAL NEBRASKA

CITY           SKY/WX    TMP DP  RH WIND       PRES   REMARKS
VALENTINE      CLOUDY    44  26  49 S14       30.20F
AINSWORTH      CLOUDY    46  25  43 S9        30.22S
BROKEN BOW     MOSUNNY   47  25  42 SE10G21   30.22F
O`NEILL        PTSUNNY   48  16  28 E6        30.25F
ORD            SUNNY     49  23  36 SE10      30.24F
THEDFORD       MOSUNNY   51  22  33 S15       30.19F
$$

NEZ041-046>049-061>064-073>077-083>087-172100-
SOUTH CENTRAL NEBRASKA

CITY           SKY/WX    TMP DP  RH WIND       PRES   REMARKS
GRAND ISLAND   SUNNY     51  26  37 CALM      30.27F
HASTINGS       SUNNY     50  27  40 VRB5      30.25F
HEBRON         SUNNY     51  27  39 S5        30.27S
HOLDREGE       SUNNY     47  28  48 SE3       30.24F
KEARNEY *      SUNNY     48  28  46 S7        30.26F
YORK           SUNNY     48  23  37 CALM      30.26F
$$

NEZ011>018-030>034-042>045-172100-
NORTHEAST NEBRASKA

CITY           SKY/WX    TMP DP  RH WIND       PRES   REMARKS
NORFOLK        SUNNY     50  22  33 VRB7      30.26F
ALBION         SUNNY     49  21  33 S5        30.26F
BLAIR          SUNNY     49  26  41 NW5       30.27F
COLUMBUS *     SUNNY     52  27  37 N3        30.28F
FREMONT        SUNNY     51  25  36 NW3       30.28F
TEKAMAH        SUNNY     51  23  33 VRB3      30.28F
$$

NEZ050>053-065>068-078-088>093-172100-
SOUTHEAST NEBRASKA

CITY           SKY/WX    TMP DP  RH WIND       PRES   REMARKS
LINCOLN        SUNNY     53  25  33 CALM      30.28F
OMAHA EPPLEY   MOSUNNY   51  26  37 NW7       30.28F
BEATRICE       SUNNY     52  27  38 SE5       30.27F
FALLS CITY     SUNNY     52  30  43 VRB5      30.28F
$$

NEZ044-045-051>053-067-172100-
OMAHA AREA

CITY           SKY/WX    TMP DP  RH WIND       PRES   REMARKS
OMAHA EPPLEY   MOSUNNY   51  26  37 NW7       30.28F
BLAIR          SUNNY     49  26  41 NW5       30.27F
FREMONT        SUNNY     51  25  36 NW3       30.28F
OFFUTT AFB     SUNNY     52  28  40 NE8       30.28F
$$



USA.gov is the U.S. government's official web portal to all federal, state and local government web resources and services.